When you browse on this site, cookies collect data to enhance your experience and personalize the content and advertising you see.
Visit our Privacy Policy to learn more. By continuing to use the site, you agree to this use of cookies and data.
  • In Österreich
  • Länderverzeichnis
  • Für 7 Tage
  • Wassertemperatur
  • Satellitenkarten
  • Wetterkarte
  • News
  • Widgets
  • user-avatar
    Anmelden

    Stündliche Wetter Townsville

    Heute, 18 November, Sonntag

    Zeit Temperatur Niederschläge Wind Luftdruck Luftfeuchtigkeit
    00:00 +24°C° 0 mm 2 m/S 752 mmHg 78%
    01:00 +24°C° 0 mm 2 m/S 752 mmHg 80%
    02:00 +24°C° 0 mm 2 m/S 752 mmHg 82%
    03:00 +24°C° 0 mm 2 m/S 752 mmHg 84%
    04:00 +23°C° 0 mm 2 m/S 752 mmHg 86%
    05:00 +25°C° 0 mm 2 m/S 752 mmHg 82%
    06:00 +26°C° 0 mm 3 m/S 752 mmHg 78%
    07:00 +27°C° 0 mm 3 m/S 753 mmHg 74%
    08:00 +29°C° 0 mm 3 m/S 753 mmHg 66%
    09:00 +30°C° 0 mm 4 m/S 753 mmHg 57%
    10:00 +33°C° 0 mm 4 m/S 753 mmHg 51%
    11:00 +34°C° 0 mm 4 m/S 752 mmHg 48%
    12:00 +34°C° 0 mm 4 m/S 752 mmHg 44%
    13:00 +35°C° 0 mm 4 m/S 752 mmHg 41%
    14:00 +34°C° 0 mm 4 m/S 752 mmHg 43%
    15:00 +34°C° 0 mm 4 m/S 751 mmHg 45%
    16:00 +33°C° 0 mm 4 m/S 751 mmHg 47%
    17:00 +30°C° 0 mm 4 m/S 752 mmHg 56%
    18:00 +28°C° 0 mm 4 m/S 752 mmHg 65%
    19:00 +27°C° 0 mm 3 m/S 752 mmHg 75%
    20:00 +26°C° 0 mm 3 m/S 753 mmHg 78%
    21:00 +26°C° 0 mm 3 m/S 753 mmHg 80%
    22:00 +26°C° 0 mm 3 m/S 753 mmHg 83%
    23:00 +25°C° 0 mm 3 m/S 753 mmHg 84%

    Morgen, 19 November, Montag

    Zeit Temperatur Niederschläge Wind Luftdruck Luftfeuchtigkeit
    00:00 +25°C° 0 mm 3 m/S 753 mmHg 85%
    01:00 +25°C° 0 mm 3 m/S 752 mmHg 86%
    02:00 +25°C° 0 mm 3 m/S 752 mmHg 86%
    03:00 +25°C° 0 mm 3 m/S 752 mmHg 85%
    04:00 +25°C° 0 mm 3 m/S 752 mmHg 85%
    05:00 +26°C° 0 mm 4 m/S 752 mmHg 81%
    06:00 +26°C° 0 mm 4 m/S 753 mmHg 76%
    07:00 +27°C° 0 mm 4 m/S 753 mmHg 72%
    08:00 +29°C° 0 mm 4 m/S 753 mmHg 65%
    09:00 +30°C° 0 mm 5 m/S 753 mmHg 59%
    10:00 +33°C° 0 mm 5 m/S 753 mmHg 52%
    11:00 +33°C° 0 mm 5 m/S 753 mmHg 49%
    12:00 +34°C° 0 mm 5 m/S 752 mmHg 47%
    13:00 +35°C° 0 mm 5 m/S 752 mmHg 45%
    14:00 +34°C° 0 mm 5 m/S 752 mmHg 47%
    15:00 +33°C° 0 mm 5 m/S 751 mmHg 49%
    16:00 +33°C° 0 mm 4 m/S 751 mmHg 51%
    17:00 +30°C° 0 mm 4 m/S 751 mmHg 59%
    18:00 +28°C° 0 mm 4 m/S 752 mmHg 66%
    19:00 +27°C° 0 mm 3 m/S 752 mmHg 74%
    20:00 +27°C° 0 mm 3 m/S 753 mmHg 77%
    21:00 +26°C° 0 mm 3 m/S 753 mmHg 80%
    22:00 +26°C° 0 mm 4 m/S 754 mmHg 83%
    23:00 +26°C° 0 mm 4 m/S 753 mmHg 84%

    übermorgen, 20 November, Dienstag

    Zeit Temperatur Niederschläge Wind Luftdruck Luftfeuchtigkeit
    00:00 +25°C° 0 mm 4 m/S 753 mmHg 85%
    01:00 +25°C° 0 mm 4 m/S 753 mmHg 86%
    02:00 +25°C° 0.1 mm 3 m/S 753 mmHg 87%
    03:00 +25°C° 0.1 mm 3 m/S 752 mmHg 88%
    04:00 +25°C° 0.1 mm 3 m/S 752 mmHg 90%
    05:00 +25°C° 0 mm 3 m/S 753 mmHg 85%
    06:00 +26°C° 0 mm 3 m/S 753 mmHg 81%
    07:00 +27°C° 0 mm 3 m/S 753 mmHg 77%
    08:00 +29°C° 0 mm 4 m/S 753 mmHg 69%
    09:00 +30°C° 0 mm 4 m/S 753 mmHg 61%
    10:00 +33°C° 0 mm 4 m/S 753 mmHg 53%
    11:00 +34°C° 0 mm 5 m/S 752 mmHg 50%
    12:00 +34°C° 0 mm 5 m/S 752 mmHg 48%
    13:00 +35°C° 0 mm 5 m/S 751 mmHg 46%
    14:00 +34°C° 0 mm 5 m/S 751 mmHg 49%
    15:00 +33°C° 0 mm 5 m/S 751 mmHg 51%
    16:00 +32°C° 0 mm 4 m/S 750 mmHg 54%
    17:00 +30°C° 0 mm 4 m/S 751 mmHg 62%
    18:00 +28°C° 0 mm 4 m/S 751 mmHg 69%
    19:00 +27°C° 0 mm 3 m/S 752 mmHg 77%
    20:00 +27°C° 0 mm 3 m/S 752 mmHg 79%
    21:00 +26°C° 0 mm 3 m/S 752 mmHg 82%
    22:00 +26°C° 0 mm 3 m/S 753 mmHg 84%
    23:00 +26°C° 0 mm 3 m/S 752 mmHg 85%

    21 November, Mittwoch

    Zeit Temperatur Niederschläge Wind Luftdruck Luftfeuchtigkeit
    00:00 +26°C° 0 mm 4 m/S 752 mmHg 86%
    01:00 +26°C° 0 mm 4 m/S 752 mmHg 87%
    02:00 +26°C° 0 mm 4 m/S 751 mmHg 87%
    03:00 +26°C° 0 mm 4 m/S 751 mmHg 87%
    04:00 +26°C° 0 mm 4 m/S 751 mmHg 87%
    05:00 +26°C° 0 mm 4 m/S 752 mmHg 84%
    06:00 +27°C° 0 mm 4 m/S 752 mmHg 80%
    07:00 +28°C° 0 mm 4 m/S 753 mmHg 76%
    08:00 +29°C° 0 mm 4 m/S 753 mmHg 69%
    09:00 +32°C° 0 mm 4 m/S 753 mmHg 63%
    10:00 +33°C° 0 mm 4 m/S 753 mmHg 56%
    11:00 +34°C° 0 mm 5 m/S 752 mmHg 54%
    12:00 +35°C° 0 mm 5 m/S 752 mmHg 52%
    13:00 +35°C° 0 mm 5 m/S 751 mmHg 50%
    14:00 +35°C° 0 mm 5 m/S 750 mmHg 52%
    15:00 +34°C° 0 mm 5 m/S 750 mmHg 54%
    16:00 +33°C° 0 mm 5 m/S 749 mmHg 57%
    17:00 +32°C° 0 mm 4 m/S 750 mmHg 64%
    18:00 +29°C° 0 mm 4 m/S 750 mmHg 72%
    19:00 +27°C° 0 mm 4 m/S 750 mmHg 80%
    20:00 +27°C° 0 mm 4 m/S 751 mmHg 82%
    21:00 +26°C° 0 mm 4 m/S 751 mmHg 83%
    22:00 +26°C° 0 mm 4 m/S 751 mmHg 85%
    23:00 +26°C° 0 mm 4 m/S 751 mmHg 86%

    22 November, Donnerstag

    Zeit Temperatur Niederschläge Wind Luftdruck Luftfeuchtigkeit
    00:00 +26°C° 0 mm 4 m/S 751 mmHg 88%
    01:00 +26°C° 0 mm 4 m/S 750 mmHg 89%
    02:00 +26°C° 0 mm 4 m/S 750 mmHg 89%
    03:00 +26°C° 0 mm 4 m/S 750 mmHg 89%
    04:00 +26°C° 0 mm 4 m/S 750 mmHg 89%
    05:00 +27°C° 0 mm 4 m/S 751 mmHg 85%
    06:00 +27°C° 0 mm 5 m/S 751 mmHg 80%
    07:00 +28°C° 0 mm 5 m/S 752 mmHg 76%
    08:00 +30°C° 0 mm 5 m/S 752 mmHg 67%
    09:00 +33°C° 0 mm 5 m/S 752 mmHg 59%
    10:00 +35°C° 0 mm 5 m/S 752 mmHg 50%
    11:00 +36°C° 0 mm 5 m/S 751 mmHg 48%
    12:00 +37°C° 0 mm 5 m/S 751 mmHg 46%
    13:00 +39°C° 0 mm 5 m/S 750 mmHg 44%
    14:00 +37°C° 0 mm 5 m/S 749 mmHg 48%
    15:00 +36°C° 0 mm 5 m/S 749 mmHg 52%
    16:00 +35°C° 0 mm 5 m/S 749 mmHg 57%
    17:00 +33°C° 0.6 mm 5 m/S 749 mmHg 65%
    18:00 +32°C° 0.6 mm 4 m/S 750 mmHg 74%
    19:00 +29°C° 0.6 mm 4 m/S 750 mmHg 82%
    20:00 +29°C° 0.4 mm 3 m/S 751 mmHg 85%
    21:00 +28°C° 0.4 mm 3 m/S 751 mmHg 87%
    22:00 +28°C° 0.4 mm 3 m/S 751 mmHg 90%
    23:00 +28°C° 2.1 mm 3 m/S 751 mmHg 88%

    23 November, Freitag

    Zeit Temperatur Niederschläge Wind Luftdruck Luftfeuchtigkeit
    00:00 +28°C° 2.1 mm 3 m/S 751 mmHg 87%
    01:00 +28°C° 2.1 mm 3 m/S 750 mmHg 86%
    02:00 +28°C° 0.9 mm 3 m/S 750 mmHg 86%
    03:00 +28°C° 0.9 mm 3 m/S 750 mmHg 86%
    04:00 +28°C° 0.9 mm 3 m/S 750 mmHg 87%
    05:00 +28°C° 0.4 mm 3 m/S 751 mmHg 81%
    06:00 +29°C° 0.4 mm 2 m/S 751 mmHg 76%
    07:00 +29°C° 0.4 mm 2 m/S 752 mmHg 70%
    08:00 +32°C° 0 mm 2 m/S 752 mmHg 60%
    09:00 +35°C° 0 mm 2 m/S 752 mmHg 50%
    10:00 +37°C° 0 mm 2 m/S 752 mmHg 39%
    11:00 +38°C° 0 mm 3 m/S 752 mmHg 37%
    12:00 +39°C° 0 mm 3 m/S 751 mmHg 35%
    13:00 +41°C° 0 mm 4 m/S 750 mmHg 33%
    14:00 +41°C° 0 mm 4 m/S 750 mmHg 36%
    15:00 +40°C° 0 mm 4 m/S 749 mmHg 39%
    16:00 +39°C° 0 mm 5 m/S 749 mmHg 42%
    17:00 +36°C° 0 mm 4 m/S 749 mmHg 53%
    18:00 +33°C° 0 mm 4 m/S 749 mmHg 65%
    19:00 +30°C° 0 mm 4 m/S 749 mmHg 77%
    20:00 +30°C° 0 mm 4 m/S 750 mmHg 80%
    21:00 +29°C° 0 mm 4 m/S 750 mmHg 83%
    22:00 +29°C° 0 mm 4 m/S 751 mmHg 87%
    23:00 +28°C° 0 mm 4 m/S 750 mmHg 88%
    Mehr zeigen